Simultaneous Nadir Overpasses (SNOs) Predictions

Prediction of SNOs between GOES-15 and FY3D Satellite Orbit:

Table of predicted SNOs for the next 14.0 days since TLE Epoch: 2/24/2023
Index Date Time (GOES-15) GOES-15 Lat,Lon FY3D Lat,Lon Distance(km) Time Diff (sec)
1 02/25/2023 22:51:27 -0.10,-128.09 -1.02,-132.25 474.23 80
2 02/26/2023 22:30:25 -0.10,-128.07 -0.04,-127.80 30.42 80
3 03/01/2023 10:34:28 0.11,-128.01 0.26,-128.75 84.30 80
4 03/02/2023 10:18:47 0.11,-127.99 -0.72,-124.30 420.28 80
5 03/03/2023 22:41:18 -0.12,-127.96 -0.50,-129.72 200.54 80
6 03/04/2023 22:20:17 -0.12,-127.94 0.49,-125.27 303.64 80
7 03/06/2023 10:42:40 0.12,-127.89 0.76,-130.66 316.62 80
8 03/07/2023 10:26:59 0.12,-127.86 -0.23,-126.21 187.69 80
9 03/08/2023 22:49:30 -0.12,-127.84 -0.98,-131.64 433.11 80
10 03/09/2023 22:28:28 -0.12,-127.81 0.02,-127.19 70.71 80
